Satellite: NOAA-14 Catalog number: 23455 Epoch time: 08290.49965893 Element set: 351 Inclination: 098.9366 deg RA of node: 002.7453 deg Eccentricity: 0.0009881 Arg of perigee: 156.6236 deg Mean anomaly: 203.5415 deg Mean motion: 14.13748574 rev/day Decay rate: -1.73e-06 rev/day^2 Epoch rev: 71149 Checksum: 330
Satellite: NOAA-15 Catalog number: 25338 Epoch time: 08290.22188666 Element set: 662 Inclination: 098.5650 deg RA of node: 279.0687 deg Eccentricity: 0.0011414 Arg of perigee: 052.4133 deg Mean anomaly: 307.8087 deg Mean motion: 14.24729145 rev/day Decay rate: 1.62e-06 rev/day^2 Epoch rev: 54203 Checksum: 305
Satellite: RESURS Catalog number: 25394 Epoch time: 08289.95023576 Element set: 0068 Inclination: 098.3747 deg RA of node: 328.3294 deg Eccentricity: 0.0001011 Arg of perigee: 166.8524 deg Mean anomaly: 193.2682 deg Mean motion: 14.24172626 rev/day Decay rate: -2.1e-07 rev/day^2 Epoch rev: 53363 Checksum: 305
Satellite: FENGYUN1 Catalog number: 25730 Epoch time: 08290.73751490 Element set: 592 Inclination: 098.7339 deg RA of node: 262.4693 deg Eccentricity: 0.0019877 Arg of perigee: 180.5819 deg Mean anomaly: 179.5332 deg Mean motion: 14.07810750 rev/day Decay rate: 2.42e-06 rev/day^2 Epoch rev: 48606 Checksum: 328
Satellite: OKEAN-0 Catalog number: 25860 Epoch time: 08289.58070042 Element set: 499 Inclination: 097.7622 deg RA of node: 274.8765 deg Eccentricity: 0.0000506 Arg of perigee: 072.3950 deg Mean anomaly: 287.7311 deg Mean motion: 14.73539839 rev/day Decay rate: 5.6e-07 rev/day^2 Epoch rev: 49712 Checksum: 331
Satellite: NOAA-16 Catalog number: 26536 Epoch time: 08290.19488018 Element set: 137 Inclination: 099.1667 deg RA of node: 282.0888 deg Eccentricity: 0.0009804 Arg of perigee: 244.8078 deg Mean anomaly: 115.2108 deg Mean motion: 14.12498415 rev/day Decay rate: -4.0e-07 rev/day^2 Epoch rev: 41585 Checksum: 322
Satellite: NOAA-17 Catalog number: 27453 Epoch time: 08290.47011764 Element set: 137 Inclination: 098.5216 deg RA of node: 351.5033 deg Eccentricity: 0.0012752 Arg of perigee: 114.1461 deg Mean anomaly: 246.1046 deg Mean motion: 14.24010116 rev/day Decay rate: 1.35e-06 rev/day^2 Epoch rev: 32806 Checksum: 256
Satellite: NOAA-18 Catalog number: 28654 Epoch time: 08290.50766636 Element set: 625 Inclination: 098.8783 deg RA of node: 229.9950 deg Eccentricity: 0.0014133 Arg of perigee: 334.9094 deg Mean anomaly: 025.1383 deg Mean motion: 14.11200298 rev/day Decay rate: -1.00e-06 rev/day^2 Epoch rev: 17558 Checksum: 316
/EX SB KEPS @ AMSAT $ORB08290.M Orbital Elements 08290.MISC
HR AMSAT ORBITAL ELEMENTS FOR MANNED AND MISCELLANEOUS SATELLITES FROM WA5QGD FORT WORTH,TX October 16, 2008 Send Subscribe/unsubscribe to KEPS at http://www.amsat.org/mailman/listinfo/keps BID: ORB08290.M TO ALL RADIO AMATEURS BT
Satellite: HUBBLE Catalog number: 20580 Epoch time: 08289.94102288 Element set: 0247 Inclination: 028.4703 deg RA of node: 255.6187 deg Eccentricity: 0.0003864 Arg of perigee: 221.5556 deg Mean anomaly: 138.4741 deg Mean motion: 15.00417068 rev/day Decay rate: 4.09e-06 rev/day^2 Epoch rev: 81313 Checksum: 292
Satellite: PO-34 Catalog number: 25520 Epoch time: 08290.75568723 Element set: 101 Inclination: 028.4580 deg RA of node: 084.8565 deg Eccentricity: 0.0005861 Arg of perigee: 170.2123 deg Mean anomaly: 189.8587 deg Mean motion: 15.17242923 rev/day Decay rate: 5.61e-06 rev/day^2 Epoch rev: 55164 Checksum: 309
Satellite: ISS Catalog number: 25544 Epoch time: 08290.50497133 Element set: 452 Inclination: 051.6419 deg RA of node: 114.3833 deg Eccentricity: 0.0003459 Arg of perigee: 227.5088 deg Mean anomaly: 172.1737 deg Mean motion: 15.72293287 rev/day Decay rate: 1.4617e-04 rev/day^2 Epoch rev: 56762 Checksum: 310
Satellite: CO-58 Catalog number: 28895 Epoch time: 08290.65688693 Element set: 145 Inclination: 098.0829 deg RA of node: 181.6967 deg Eccentricity: 0.0018652 Arg of perigee: 032.5673 deg Mean anomaly: 327.6667 deg Mean motion: 14.59704628 rev/day Decay rate: 8.6e-07 rev/day^2 Epoch rev: 15820 Checksum: 371
Satellite: FALCON Catalog number: 30776 Epoch time: 08289.93839820 Element set: 0441 Inclination: 035.4331 deg RA of node: 141.1217 deg Eccentricity: 0.0001988 Arg of perigee: 314.1552 deg Mean anomaly: 045.9001 deg Mean motion: 15.03074367 rev/day Decay rate: 4.70e-06 rev/day^2 Epoch rev: 08832 Checksum: 280
Satellite: MAST Catalog number: 31126 Epoch time: 08290.54265192 Element set: 438 Inclination: 098.0256 deg RA of node: 350.0398 deg Eccentricity: 0.0094112 Arg of perigee: 316.3384 deg Mean anomaly: 043.0574 deg Mean motion: 14.53451028 rev/day Decay rate: 1.27e-06 rev/day^2 Epoch rev: 7964 Checksum: 285
Satellite: CAPE1 Catalog number: 31130 Epoch time: 08289.85696937 Element set: 430 Inclination: 098.0277 deg RA of node: 348.1184 deg Eccentricity: 0.0101861 Arg of perigee: 322.3831 deg Mean anomaly: 037.0228 deg Mean motion: 14.51997581 rev/day Decay rate: 4.9e-07 rev/day^2 Epoch rev: 7923 Checksum: 313
Satellite: COMPASS Catalog number: 32787 Epoch time: 08290.69455113 Element set: 175 Inclination: 097.9759 deg RA of node: 350.1544 deg Eccentricity: 0.0017020 Arg of perigee: 102.3344 deg Mean anomaly: 257.9764 deg Mean motion: 14.81477730 rev/day Decay rate: 4.55e-06 rev/day^2 Epoch rev: 2539 Checksum: 312
Satellite: AAUSAT2 Catalog number: 32788 Epoch time: 08289.60130194 Element set: 0174 Inclination: 097.9771 deg RA of node: 349.0887 deg Eccentricity: 0.0016692 Arg of perigee: 106.2494 deg Mean anomaly: 254.0566 deg Mean motion: 14.81588242 rev/day Decay rate: 3.13e-06 rev/day^2 Epoch rev: 02523 Checksum: 321
Satellite: DO-64 Catalog number: 32789 Epoch time: 08289.88453168 Element set: 0190 Inclination: 097.9789 deg RA of node: 349.4129 deg Eccentricity: 0.0016907 Arg of perigee: 104.4827 deg Mean anomaly: 255.8248 deg Mean motion: 14.81498848 rev/day Decay rate: 6.87e-06 rev/day^2 Epoch rev: 02527 Checksum: 385
Satellite: CO-66 Catalog number: 32791 Epoch time: 08289.22500796 Element set: 0170 Inclination: 097.9792 deg RA of node: 348.7132 deg Eccentricity: 0.0017345 Arg of perigee: 104.0749 deg Mean anomaly: 256.2386 deg Mean motion: 14.81327896 rev/day Decay rate: 4.33e-06 rev/day^2 Epoch rev: 02514 Checksum: 329
Satellite: RS-30 Catalog number: 32953 Epoch time: 08289.74233627 Element set: 133 Inclination: 082.5017 deg RA of node: 048.6095 deg Eccentricity: 0.0018746 Arg of perigee: 355.1151 deg Mean anomaly: 004.9746 deg Mean motion: 12.42997940 rev/day Decay rate: 1.0e-07 rev/day^2 Epoch rev: 1802 Checksum: 295
/EX
participants (1)
-
Ray Hoad